This is the latest recevied weather packets stored in our database for station/object KD7AWQ. If no packets are shown the sender has not sent any weather packets the latest 10 day(s).
| Time | Temp. | Humidity | Pressure | Rain* | Wind** | Luminosity | Snow |
|---|---|---|---|---|---|---|---|
| 1777645902 | 16.11° C | 53% | 1182.3 hPa | 0 mm | - | 287 W/m² | - |
| 1777645599 | 15.56° C | 53% | 1182.3 hPa | 0 mm | - | 266 W/m² | - |
| 1777645295 | 15.56° C | 54% | 1182.3 hPa | 0 mm | - | 245 W/m² | - |
| 1777644991 | 15° C | 58% | 1182.1 hPa | 0 mm | - | 117 W/m² | - |
| 1777644689 | 14.44° C | 61% | 1182.2 hPa | 0 mm | - | 60 W/m² | - |
| 1777644384 | 14.44° C | 62% | 1182.2 hPa | 0 mm | - | 59 W/m² | - |
| 1777644082 | 13.89° C | 63% | 1182 hPa | 0 mm | - | 163 W/m² | - |
| 1777643778 | 13.89° C | 64% | 1181.9 hPa | 0 mm | - | 146 W/m² | - |
| 1777643476 | 13.89° C | 63% | 1181.8 hPa | 0 mm | - | 128 W/m² | - |
| 1777643172 | 13.33° C | 64% | 1181.9 hPa | 0 mm | - | 114 W/m² | - |
| 1777642868 | 13.33° C | 64% | 1181.6 hPa | 0 mm | - | 100 W/m² | - |
| 1777642566 | 13.33° C | 64% | 1181.5 hPa | 0 mm | - | 87 W/m² | - |
| 1777642262 | 13.33° C | 65% | 1181.8 hPa | 0 mm | - | 48 W/m² | - |
| 1777641959 | 13.33° C | 64% | 1181.2 hPa | 0 mm | - | 66 W/m² | - |
| 1777641655 | 13.33° C | 64% | 1181.5 hPa | 0 mm | - | 56 W/m² | - |
| 1777641350 | 13.33° C | 65% | 1181.3 hPa | 0 mm | - | 48 W/m² | - |
| 1777641046 | 12.78° C | 65% | 1181 hPa | 0 mm | - | 41 W/m² | - |
| 1777639530 | 12.78° C | 65% | 1180.9 hPa | 0 mm | - | 14 W/m² | - |
| 1777638618 | 12.78° C | 66% | 1181.2 hPa | 0 mm | - | 3 W/m² | - |
| 1777638315 | 12.78° C | 65% | 1181 hPa | 0 mm | - | 1 W/m² | - |
| 1777638011 | 12.78° C | 65% | 1180.7 hPa | 0 mm | - | 0 W/m² | - |
| 1777637405 | 12.78° C | 65% | 1180.9 hPa | 0 mm | - | 0 W/m² | - |
| 1777637102 | 12.78° C | 65% | 1180.6 hPa | 0 mm | - | 0 W/m² | - |
| 1777636797 | 12.78° C | 65% | 1180.9 hPa | 0 mm | - | 0 W/m² | - |
| 1777636190 | 12.78° C | 64% | 1180.7 hPa | 0 mm | - | 0 W/m² | - |
* Rain latest hour (hover to see other rain measurements)
** Current wind speed in m/s (hover to see current wind gust speed)